Date String (YYYY-MM-DD hh:mm:ss) UTC,Instrument flags,Ambient pressure (hPa),Sample flow (lpm),Bypass flow (lpm),Sample temperature (°C),Ambient temperature (°C),ASC tube jacket temperature (°C),LED temperature (°C),Box temperature (°C),Sample RH (%),Span deviation,Mass concentration (μg/m³),Mass concentration (μg/m³),Mass concentration (μg/m³)
DateTimeUTC,F1_M11,P_M11,Q1_M11,Q2_M11,T1_M11,T2_M11,T3_M11,T4_M11,T5_M11,U1_M11,ZSPAN_M11,X0_M11,X2_M11,X1_M11
2022-10-23 13:00:00,,0803.8,4.99,0.00,29.5,27.9,00.0,38.3,31.3,08.6,0000.0,0010.52,0002.43,0001.46
2022-10-23 13:01:00,,0803.7,5.02,0.00,29.5,27.9,00.0,38.3,31.3,09.4,0000.0,0010.39,0002.37,0001.45
2022-10-23 13:02:00,,0803.7,4.99,0.00,29.5,27.9,00.0,38.3,31.3,09.6,0000.0,0010.12,0002.29,0001.41
2022-10-23 13:03:00,,0803.7,4.99,0.00,29.5,27.9,00.0,38.3,31.3,09.7,0000.0,0009.28,0002.19,0001.37
2022-10-23 13:04:00,,0803.7,4.99,0.00,29.5,27.9,00.0,38.3,31.3,09.5,0000.0,0008.64,0002.18,0001.34
2022-10-23 13:05:00,,0803.6,5.02,0.00,29.5,27.9,00.0,38.3,31.3,10.1,0000.0,0007.90,0002.10,0001.32
2022-10-23 13:06:00,,0803.6,5.00,0.00,29.5,27.9,00.0,38.3,31.3,10.6,0000.0,0007.83,0002.06,0001.27
2022-10-23 13:07:00,,0803.6,4.99,0.00,29.5,27.9,00.0,38.3,31.4,10.7,0000.0,0007.64,0001.98,0001.21
2022-10-23 13:08:00,,0803.7,4.99,0.00,29.5,27.9,00.0,38.3,31.3,10.6,0000.0,0006.54,0001.96,0001.17
2022-10-23 13:09:00,,0803.5,5.02,0.00,29.5,27.9,00.0,38.3,31.3,10.7,0000.0,0006.34,0001.87,0001.13
2022-10-23 13:10:00,,0803.5,4.99,0.00,29.5,27.9,00.0,38.3,31.3,11.0,0000.0,0006.11,0001.76,0001.07
2022-10-23 13:11:00,,0803.5,4.99,0.00,29.5,27.9,00.0,38.3,31.3,11.4,0000.0,0006.04,0001.70,0001.01
2022-10-23 13:12:00,,0803.5,5.01,0.00,29.5,27.9,00.0,38.3,31.4,11.6,0000.0,0005.66,0001.63,0000.95
2022-10-23 13:13:00,,0803.5,5.00,0.00,29.5,27.9,00.0,38.3,31.4,11.6,0000.0,0005.32,0001.63,0000.92
2022-10-23 13:14:00,,0803.5,4.99,0.00,29.5,27.9,00.0,38.3,31.4,11.6,0000.0,0004.83,0001.60,0000.88
2022-10-23 13:15:00,,0803.6,5.02,0.00,29.5,27.9,00.0,38.3,31.4,11.6,0000.0,0004.39,0001.46,0000.82
2022-10-23 13:16:00,,0803.7,4.99,0.00,29.5,27.9,00.0,38.3,31.4,11.6,0000.0,0004.24,0001.40,0000.77
2022-10-23 13:17:00,,0803.7,4.99,0.00,29.5,27.9,00.0,38.4,31.4,11.5,0000.0,0003.58,0001.32,0000.74
2022-10-23 13:18:00,,0803.7,5.01,0.00,29.5,27.9,00.0,38.4,31.4,11.6,0000.0,0003.47,0001.28,0000.72
2022-10-23 13:19:00,,0803.7,5.00,0.00,29.5,27.9,00.0,38.4,31.4,11.6,0000.0,0002.72,0001.23,0000.70
2022-10-23 13:20:00,,0803.7,4.99,0.00,29.5,27.9,00.0,38.4,31.4,11.5,0000.0,0002.54,0001.17,0000.67
2022-10-23 13:21:00,,0803.7,5.00,0.00,29.5,27.9,00.0,38.4,31.4,11.4,0000.0,0003.02,0001.19,0000.66
2022-10-23 13:22:00,,0803.7,5.01,0.00,29.5,28.0,00.0,38.4,31.4,11.6,0000.0,0003.72,0001.23,0000.67
2022-10-23 13:23:00,,0803.7,4.99,0.00,29.5,28.0,00.0,38.4,31.4,11.6,0000.0,0004.26,0001.25,0000.68
2022-10-23 13:24:00,,0803.7,5.00,0.00,29.5,28.0,00.0,38.4,31.4,11.5,0000.0,0004.34,0001.22,0000.68
2022-10-23 13:25:00,,0803.7,5.01,0.00,29.5,28.0,00.0,38.4,31.4,11.5,0000.0,0004.31,0001.24,0000.68
2022-10-23 13:26:00,,0803.6,4.99,0.00,29.5,28.0,00.0,38.4,31.4,11.4,0000.0,0004.74,0001.28,0000.69
2022-10-23 13:27:00,,0803.6,4.99,0.00,29.5,28.0,00.0,38.4,31.4,11.2,0000.0,0004.79,0001.29,0000.70
2022-10-23 13:28:00,,0803.5,5.02,0.00,29.5,28.0,00.0,38.4,31.4,10.5,0000.0,0006.30,0001.32,0000.72
2022-10-23 13:29:00,,0803.5,4.99,0.00,29.5,28.0,00.0,38.4,31.4,09.3,0000.0,0006.77,0001.42,0000.78
2022-10-23 13:30:00,,0803.5,5.00,0.00,29.5,28.0,00.0,38.4,31.4,08.9,0000.0,0006.88,0001.53,0000.87
2022-10-23 13:31:00,,0803.5,5.00,0.00,29.5,28.0,00.0,38.4,31.4,08.8,0000.0,0007.17,0001.65,0000.96
2022-10-23 13:32:00,,0803.5,5.00,0.00,29.5,28.0,00.0,38.4,31.4,08.7,0000.0,0007.21,0001.69,0001.02
2022-10-23 13:33:00,,0803.5,5.00,0.00,29.6,28.0,00.0,38.4,31.4,08.6,0000.0,0006.42,0001.77,0001.09
2022-10-23 13:34:00,,0803.5,5.01,0.00,29.5,28.0,00.0,38.4,31.4,08.5,0000.0,0006.31,0001.81,0001.15
2022-10-23 13:35:00,,0803.5,4.99,0.00,29.6,28.0,00.0,38.4,31.4,08.5,0000.0,0005.89,0001.89,0001.22
2022-10-23 13:36:00,,0803.5,5.01,0.00,29.6,28.0,00.0,38.4,31.4,08.7,0000.0,0006.38,0001.99,0001.29
2022-10-23 13:37:00,,0803.4,4.99,0.00,29.6,28.0,00.0,38.4,31.4,09.0,0000.0,0006.26,0002.02,0001.35
2022-10-23 13:38:00,,0803.5,5.00,0.00,29.6,28.0,00.0,38.4,31.4,09.0,0000.0,0006.48,0002.07,0001.41
2022-10-23 13:39:00,,0803.6,4.99,0.00,29.6,28.0,00.0,38.4,31.4,08.8,0000.0,0005.61,0002.16,0001.47
2022-10-23 13:40:00,,0803.7,5.01,0.00,29.6,28.0,00.0,38.4,31.4,08.8,0000.0,0005.42,0002.19,0001.49
2022-10-23 13:41:00,,0803.7,5.00,0.00,29.6,28.0,00.0,38.4,31.4,09.0,0000.0,0006.41,0002.21,0001.50
2022-10-23 13:42:00,,0803.7,4.99,0.00,29.6,28.0,00.0,38.4,31.4,08.8,0000.0,0006.44,0002.20,0001.49
2022-10-23 13:43:00,,0803.7,5.01,0.00,29.6,28.0,00.0,38.4,31.4,08.7,0000.0,0007.44,0002.27,0001.50
2022-10-23 13:44:00,,0803.7,4.99,0.00,29.6,28.0,00.0,38.4,31.4,08.7,0000.0,0007.78,0002.32,0001.50
2022-10-23 13:45:00,,0803.7,4.99,0.00,29.6,28.0,00.0,38.4,31.4,08.8,0000.0,0007.82,0002.38,0001.51
2022-10-23 13:46:00,,0803.8,5.00,0.00,29.6,28.0,00.0,38.4,31.4,08.7,0000.0,0008.61,0002.44,0001.53
2022-10-23 13:47:00,,0803.7,5.00,0.00,29.6,28.0,00.0,38.4,31.4,08.7,0000.0,0009.04,0002.43,0001.54
2022-10-23 13:48:00,,0803.7,4.99,0.00,29.6,28.0,00.0,38.4,31.4,08.7,0000.0,0009.17,0002.49,0001.56
2022-10-23 13:49:00,,0803.7,5.01,0.00,29.6,28.0,00.0,38.4,31.4,09.3,0000.0,0009.08,0002.53,0001.56
2022-10-23 13:50:00,,0803.7,5.00,0.00,29.6,28.0,00.0,38.4,31.4,09.1,0000.0,0008.92,0002.51,0001.55
2022-10-23 13:51:00,,0803.7,4.99,0.00,29.6,28.0,00.0,38.4,31.4,09.1,0000.0,0008.82,0002.49,0001.55
2022-10-23 13:52:00,,0803.7,5.00,0.00,29.6,28.0,00.0,38.4,31.4,09.3,0000.0,0008.56,0002.47,0001.53
2022-10-23 13:53:00,,0803.7,5.02,0.00,29.6,28.1,00.0,38.4,31.4,09.4,0000.0,0008.79,0002.53,0001.50
2022-10-23 13:54:00,,0803.7,4.99,0.00,29.6,28.1,00.0,38.4,31.4,09.4,0000.0,0008.48,0002.49,0001.49
2022-10-23 13:55:00,,0803.7,4.99,0.00,29.6,28.1,00.0,38.4,31.5,09.0,0000.0,0009.03,0002.44,0001.47
2022-10-23 13:56:00,,0803.7,4.99,0.00,29.6,28.1,00.0,38.4,31.5,08.8,0000.0,0009.43,0002.42,0001.47
2022-10-23 13:57:00,,0803.6,5.02,0.00,29.6,28.1,00.0,38.4,31.5,08.9,0000.0,0008.59,0002.36,0001.44
2022-10-23 13:58:00,,0803.6,5.00,0.00,29.6,28.1,00.0,38.4,31.5,08.7,0000.0,0008.12,0002.41,0001.44
2022-10-23 13:59:00,,0803.5,4.98,0.00,29.6,28.1,00.0,38.4,31.5,08.8,0000.0,0007.97,0002.42,0001.44
